Вернуться в каталог

BREEZE-M DEB

АктивенHEO
NORAD 38590·DEBRIS·🇷🇺 Russia

Запущен Mar 14, 2008 с Baikonur Cosmodrome

Loading…

Ближайшие Пролёты (ближайшие 24 часа)

TLE

СвежийSource: Space-Track

Эпоха: Sep 13, 2026, 13:44 UTC

1 38590U 08011AM  26256.57287269 -.00000041  00000-0  00000-0 0  9998
2 38590  48.8733 271.4046 6272257 352.5552   1.3575  2.88417442175466

Отслеживайте BREEZE-M DEB в реальном времени с AllMySat

Download on the App Store